Year,Month,Day,Hour,Minute,Value (Times are PST for temperature in C)
2020,04,16,00,00,10.50
2020,04,16,00,01,10.40
2020,04,16,00,02,10.40
2020,04,16,00,03,10.40
2020,04,16,00,04,10.40
2020,04,16,00,05,10.40
2020,04,16,00,06,10.30
2020,04,16,00,07,10.30
2020,04,16,00,08,10.20
2020,04,16,00,09,10.20
2020,04,16,00,10,10.20
2020,04,16,00,11,10.10
2020,04,16,00,12,10.00
2020,04,16,00,13,10.00
2020,04,16,00,14,9.90
2020,04,16,00,15,9.80
2020,04,16,00,16,9.80
2020,04,16,00,17,9.70
2020,04,16,00,18,9.70
2020,04,16,00,19,9.60
2020,04,16,00,20,9.60
2020,04,16,00,21,9.50
2020,04,16,00,22,9.40
2020,04,16,00,23,9.40
2020,04,16,00,24,9.40
2020,04,16,00,25,9.30
2020,04,16,00,26,9.30
2020,04,16,00,27,9.30
2020,04,16,00,28,9.20
2020,04,16,00,29,9.20
2020,04,16,00,30,9.10
2020,04,16,00,31,9.10
2020,04,16,00,32,9.10
2020,04,16,00,33,9.10
2020,04,16,00,34,9.10
2020,04,16,00,35,9.00
2020,04,16,00,36,9.00
2020,04,16,00,37,8.90
2020,04,16,00,38,8.90
2020,04,16,00,39,8.90
2020,04,16,00,40,8.80
2020,04,16,00,41,8.80
2020,04,16,00,42,8.80
2020,04,16,00,43,8.80
2020,04,16,00,44,8.70
2020,04,16,00,45,8.70
2020,04,16,00,46,8.70
2020,04,16,00,47,8.70
2020,04,16,00,48,8.60
2020,04,16,00,49,8.60
2020,04,16,00,50,8.60
2020,04,16,00,51,8.60
2020,04,16,00,52,8.50
2020,04,16,00,53,8.50
2020,04,16,00,54,8.50
2020,04,16,00,55,8.50
2020,04,16,00,56,8.50
2020,04,16,00,57,8.50
2020,04,16,00,58,8.50
2020,04,16,00,59,8.60
2020,04,16,01,00,8.60
2020,04,16,01,01,8.60
2020,04,16,01,02,8.60
2020,04,16,01,03,8.60
2020,04,16,01,04,8.60
2020,04,16,01,05,8.70
2020,04,16,01,06,8.70
2020,04,16,01,07,8.70
2020,04,16,01,08,8.70
2020,04,16,01,09,8.80
2020,04,16,01,10,8.80
2020,04,16,01,11,8.70
2020,04,16,01,12,8.80
2020,04,16,01,13,8.80
2020,04,16,01,14,8.80
2020,04,16,01,15,8.80
2020,04,16,01,16,8.80
2020,04,16,01,17,8.90
2020,04,16,01,18,8.90
2020,04,16,01,19,8.90
2020,04,16,01,20,8.90
2020,04,16,01,21,8.90
2020,04,16,01,22,8.90
2020,04,16,01,23,8.90
2020,04,16,01,24,8.90
2020,04,16,01,25,8.90
2020,04,16,01,26,8.90
2020,04,16,01,27,8.90
2020,04,16,01,28,9.00
2020,04,16,01,29,9.00
2020,04,16,01,30,9.00
2020,04,16,01,31,8.90
2020,04,16,01,32,8.90
2020,04,16,01,33,8.90
2020,04,16,01,34,8.90
2020,04,16,01,35,8.90
2020,04,16,01,36,9.00
2020,04,16,01,37,9.00
2020,04,16,01,38,9.10
2020,04,16,01,39,9.20
2020,04,16,01,40,9.40
2020,04,16,01,41,9.50
2020,04,16,01,42,9.60
2020,04,16,01,43,9.80
2020,04,16,01,44,9.90
2020,04,16,01,45,10.00
2020,04,16,01,46,10.10
2020,04,16,01,47,10.20
2020,04,16,01,48,10.20
2020,04,16,01,49,10.20
2020,04,16,01,50,10.30
2020,04,16,01,51,10.40
2020,04,16,01,52,10.40
2020,04,16,01,53,10.40
2020,04,16,01,54,10.40
2020,04,16,01,55,10.40
2020,04,16,01,56,10.30
2020,04,16,01,57,10.20
2020,04,16,01,58,10.10
2020,04,16,01,59,10.00
2020,04,16,02,00,9.90
2020,04,16,02,01,9.90
2020,04,16,02,02,9.80
2020,04,16,02,03,9.80
2020,04,16,02,04,9.80
2020,04,16,02,05,9.80
2020,04,16,02,06,9.70
2020,04,16,02,07,9.70
2020,04,16,02,08,9.60
2020,04,16,02,09,9.60
2020,04,16,02,10,9.50
2020,04,16,02,11,9.40
2020,04,16,02,12,9.40
2020,04,16,02,13,9.30
2020,04,16,02,14,9.30
2020,04,16,02,15,9.20
2020,04,16,02,16,9.20
2020,04,16,02,17,9.10
2020,04,16,02,18,9.10
2020,04,16,02,19,9.10
2020,04,16,02,20,9.10
2020,04,16,02,21,9.10
2020,04,16,02,22,9.10
2020,04,16,02,23,9.10
2020,04,16,02,24,9.00
2020,04,16,02,25,9.00
2020,04,16,02,26,8.90
2020,04,16,02,27,8.80
2020,04,16,02,28,8.80
2020,04,16,02,29,8.70
2020,04,16,02,30,8.70
2020,04,16,02,31,8.60
2020,04,16,02,32,8.60
2020,04,16,02,33,8.50
2020,04,16,02,34,8.40
2020,04,16,02,35,8.30
2020,04,16,02,36,8.30
2020,04,16,02,37,8.20
2020,04,16,02,38,8.20
2020,04,16,02,39,8.20
2020,04,16,02,40,8.20
2020,04,16,02,41,8.20
2020,04,16,02,42,8.20
2020,04,16,02,43,8.10
2020,04,16,02,44,8.10
2020,04,16,02,45,8.10
2020,04,16,02,46,8.10
2020,04,16,02,47,8.00
2020,04,16,02,48,8.00
2020,04,16,02,49,8.00
2020,04,16,02,50,7.90
2020,04,16,02,51,7.90
2020,04,16,02,52,8.00
2020,04,16,02,53,8.00
2020,04,16,02,54,8.00
2020,04,16,02,55,8.00
2020,04,16,02,56,7.90
2020,04,16,02,57,7.90
2020,04,16,02,58,7.90
2020,04,16,02,59,7.90
2020,04,16,03,00,7.90
2020,04,16,03,01,7.80
2020,04,16,03,02,7.80
2020,04,16,03,03,7.80
2020,04,16,03,04,7.80
2020,04,16,03,05,7.80
2020,04,16,03,06,7.80
2020,04,16,03,07,7.80
2020,04,16,03,08,7.80
2020,04,16,03,09,7.80
2020,04,16,03,10,7.80
2020,04,16,03,11,7.80
2020,04,16,03,12,7.80
2020,04,16,03,13,7.70
2020,04,16,03,14,7.80
2020,04,16,03,15,7.70
2020,04,16,03,16,7.70
2020,04,16,03,17,7.70
2020,04,16,03,18,7.70
2020,04,16,03,19,7.60
2020,04,16,03,20,7.60
2020,04,16,03,21,7.60
2020,04,16,03,22,7.60
2020,04,16,03,23,7.60
2020,04,16,03,24,7.50
2020,04,16,03,25,7.50
2020,04,16,03,26,7.50
2020,04,16,03,27,7.50
2020,04,16,03,28,7.40
2020,04,16,03,29,7.40
2020,04,16,03,30,7.40
2020,04,16,03,31,7.40
2020,04,16,03,32,7.40
2020,04,16,03,33,7.30
2020,04,16,03,34,7.30
2020,04,16,03,35,7.40
2020,04,16,03,36,7.40
2020,04,16,03,37,7.40
2020,04,16,03,38,7.40
2020,04,16,03,39,7.40
2020,04,16,03,40,7.40
2020,04,16,03,41,7.40
2020,04,16,03,42,7.40
2020,04,16,03,43,7.50
2020,04,16,03,44,7.50
2020,04,16,03,45,7.50
2020,04,16,03,46,7.50
2020,04,16,03,47,7.60
2020,04,16,03,48,7.50
2020,04,16,03,49,7.60
2020,04,16,03,50,7.60
2020,04,16,03,51,7.60
2020,04,16,03,52,7.60
2020,04,16,03,53,7.60
2020,04,16,03,54,7.50
2020,04,16,03,55,7.50
2020,04,16,03,56,7.50
2020,04,16,03,57,7.50
2020,04,16,03,58,7.50
2020,04,16,03,59,7.40
2020,04,16,04,00,7.40
2020,04,16,04,01,7.40
2020,04,16,04,02,7.40
2020,04,16,04,03,7.40
2020,04,16,04,04,7.30
2020,04,16,04,05,7.30
2020,04,16,04,06,7.30
2020,04,16,04,07,7.20
2020,04,16,04,08,7.20
2020,04,16,04,09,7.30
2020,04,16,04,10,7.30
2020,04,16,04,11,7.30
2020,04,16,04,12,7.30
2020,04,16,04,13,7.30
2020,04,16,04,14,7.30
2020,04,16,04,15,7.30
2020,04,16,04,16,7.30
2020,04,16,04,17,7.30
2020,04,16,04,18,7.30
2020,04,16,04,19,7.30
2020,04,16,04,20,7.30
2020,04,16,04,21,7.50
2020,04,16,04,22,7.60
2020,04,16,04,23,7.70
2020,04,16,04,24,7.80
2020,04,16,04,25,7.90
2020,04,16,04,26,7.90
2020,04,16,04,27,7.90
2020,04,16,04,28,7.90
2020,04,16,04,29,7.80
2020,04,16,04,30,7.70
2020,04,16,04,31,7.60
2020,04,16,04,32,7.60
2020,04,16,04,33,7.60
2020,04,16,04,34,7.60
2020,04,16,04,35,7.50
2020,04,16,04,36,7.50
2020,04,16,04,37,7.40
2020,04,16,04,38,7.40
2020,04,16,04,39,7.40
2020,04,16,04,40,7.40
2020,04,16,04,41,7.40
2020,04,16,04,42,7.40
2020,04,16,04,43,7.40
2020,04,16,04,44,7.40
2020,04,16,04,45,7.30
2020,04,16,04,46,7.30
2020,04,16,04,47,7.30
2020,04,16,04,48,7.20
2020,04,16,04,49,7.20
2020,04,16,04,50,7.20
2020,04,16,04,51,7.20
2020,04,16,04,52,7.20
2020,04,16,04,53,7.20
2020,04,16,04,54,7.10
2020,04,16,04,55,7.10
2020,04,16,04,56,7.10
2020,04,16,04,57,7.00
2020,04,16,04,58,6.90
2020,04,16,04,59,6.80
2020,04,16,05,00,6.80
2020,04,16,05,01,6.70
2020,04,16,05,02,6.70
2020,04,16,05,03,6.70
2020,04,16,05,04,6.70
2020,04,16,05,05,6.70
2020,04,16,05,06,6.70
2020,04,16,05,07,6.70
2020,04,16,05,08,6.70
2020,04,16,05,09,6.70
2020,04,16,05,10,6.70
2020,04,16,05,11,6.60
2020,04,16,05,12,6.60
2020,04,16,05,13,6.70
2020,04,16,05,14,6.70
2020,04,16,05,15,6.70
2020,04,16,05,16,6.70
2020,04,16,05,17,6.70
2020,04,16,05,18,6.60
2020,04,16,05,19,6.60
2020,04,16,05,20,6.60
2020,04,16,05,21,6.60
2020,04,16,05,22,6.60
2020,04,16,05,23,6.60
2020,04,16,05,24,6.60
2020,04,16,05,25,6.60
2020,04,16,05,26,6.70
2020,04,16,05,27,6.70
2020,04,16,05,28,6.70
2020,04,16,05,29,6.70
2020,04,16,05,30,6.70
2020,04,16,05,31,6.70
2020,04,16,05,32,6.70
2020,04,16,05,33,6.70
2020,04,16,05,34,6.60
2020,04,16,05,35,6.60
2020,04,16,05,36,6.60
2020,04,16,05,37,6.50
2020,04,16,05,38,6.50
2020,04,16,05,39,6.50
2020,04,16,05,40,6.40
2020,04,16,05,41,6.40
2020,04,16,05,42,6.30
2020,04,16,05,43,6.30
2020,04,16,05,44,6.30
2020,04,16,05,45,6.20
2020,04,16,05,46,6.20
2020,04,16,05,47,6.20
2020,04,16,05,48,6.20
2020,04,16,05,49,6.20
2020,04,16,05,50,6.20
2020,04,16,05,51,6.10
2020,04,16,05,52,6.10
2020,04,16,05,53,6.10
2020,04,16,05,54,6.10
2020,04,16,05,55,6.10
2020,04,16,05,56,6.00
2020,04,16,05,57,6.00
2020,04,16,05,58,6.00
2020,04,16,05,59,6.00
2020,04,16,06,00,6.10
2020,04,16,06,01,6.10
2020,04,16,06,02,6.10
2020,04,16,06,03,6.10
2020,04,16,06,04,6.10
2020,04,16,06,05,6.20
2020,04,16,06,06,6.20
2020,04,16,06,07,6.20
2020,04,16,06,08,6.20
2020,04,16,06,09,6.20
2020,04,16,06,10,6.10
2020,04,16,06,11,6.10
2020,04,16,06,12,6.00
2020,04,16,06,13,6.00
2020,04,16,06,14,6.00
2020,04,16,06,15,5.90
2020,04,16,06,16,5.90
2020,04,16,06,17,5.80
2020,04,16,06,18,5.80
2020,04,16,06,19,5.80
2020,04,16,06,20,5.80
2020,04,16,06,21,5.80
2020,04,16,06,22,5.70
2020,04,16,06,23,5.70
2020,04,16,06,24,5.70
2020,04,16,06,25,5.70
2020,04,16,06,26,5.70
2020,04,16,06,27,5.70
2020,04,16,06,28,5.60
2020,04,16,06,29,5.60
2020,04,16,06,30,5.50
2020,04,16,06,31,5.50
2020,04,16,06,32,5.50
2020,04,16,06,33,5.40
2020,04,16,06,34,5.40
2020,04,16,06,35,5.40
2020,04,16,06,36,5.40
2020,04,16,06,37,5.50
2020,04,16,06,38,5.50
2020,04,16,06,39,5.50
2020,04,16,06,40,5.50
2020,04,16,06,41,5.50
2020,04,16,06,42,5.60
2020,04,16,06,43,5.80
2020,04,16,06,44,5.90
2020,04,16,06,45,6.00
2020,04,16,06,46,6.10
2020,04,16,06,47,6.20
2020,04,16,06,48,6.30
2020,04,16,06,49,6.30
2020,04,16,06,50,6.40
2020,04,16,06,51,6.40
2020,04,16,06,52,6.30
2020,04,16,06,53,6.30
2020,04,16,06,54,6.30
2020,04,16,06,55,6.30
2020,04,16,06,56,6.30
2020,04,16,06,57,6.30
2020,04,16,06,58,6.30
2020,04,16,06,59,6.30
2020,04,16,07,00,6.30
2020,04,16,07,01,6.30
2020,04,16,07,02,6.30
2020,04,16,07,03,6.40
2020,04,16,07,04,6.40
2020,04,16,07,05,6.40
2020,04,16,07,06,6.40
2020,04,16,07,07,6.40
2020,04,16,07,08,6.50
2020,04,16,07,09,6.50
2020,04,16,07,10,6.50
2020,04,16,07,11,6.50
2020,04,16,07,12,6.60
2020,04,16,07,13,6.60
2020,04,16,07,14,6.60
2020,04,16,07,15,6.60
2020,04,16,07,16,6.60
2020,04,16,07,17,6.70
2020,04,16,07,18,6.70
2020,04,16,07,19,6.70
2020,04,16,07,20,6.70
2020,04,16,07,21,6.70
2020,04,16,07,22,6.80
2020,04,16,07,23,6.80
2020,04,16,07,24,6.80
2020,04,16,07,25,6.80
2020,04,16,07,26,6.80
2020,04,16,07,27,6.90
2020,04,16,07,28,6.90
2020,04,16,07,29,6.90
2020,04,16,07,30,7.00
2020,04,16,07,31,7.00
2020,04,16,07,32,7.10
2020,04,16,07,33,7.10
2020,04,16,07,34,7.20
2020,04,16,07,35,7.20
2020,04,16,07,36,7.30
2020,04,16,07,37,7.40
2020,04,16,07,38,7.40
2020,04,16,07,39,7.50
2020,04,16,07,40,7.60
2020,04,16,07,41,7.70
2020,04,16,07,42,7.80
2020,04,16,07,43,7.90
2020,04,16,07,44,8.10
2020,04,16,07,45,8.30
2020,04,16,07,46,8.40
2020,04,16,07,47,8.50
2020,04,16,07,48,8.60
2020,04,16,07,49,8.70
2020,04,16,07,50,8.80
2020,04,16,07,51,8.80
2020,04,16,07,52,9.00
2020,04,16,07,53,9.10
2020,04,16,07,54,9.20
2020,04,16,07,55,9.40
2020,04,16,07,56,9.50
2020,04,16,07,57,9.60
2020,04,16,07,58,9.70
2020,04,16,07,59,9.80
2020,04,16,08,00,9.90
2020,04,16,08,01,10.00
2020,04,16,08,02,10.10
2020,04,16,08,03,10.20
2020,04,16,08,04,10.40
2020,04,16,08,05,10.50
2020,04,16,08,06,10.60
2020,04,16,08,07,10.80
2020,04,16,08,08,10.90
2020,04,16,08,09,11.00
2020,04,16,08,10,11.20
2020,04,16,08,11,11.30
2020,04,16,08,12,11.50
2020,04,16,08,13,11.70
2020,04,16,08,14,11.80
2020,04,16,08,15,11.90
2020,04,16,08,16,12.00
2020,04,16,08,17,12.10
2020,04,16,08,18,12.20
2020,04,16,08,19,12.30
2020,04,16,08,20,12.40
2020,04,16,08,21,12.40
2020,04,16,08,22,12.50
2020,04,16,08,23,12.50
2020,04,16,08,24,12.60
2020,04,16,08,25,12.60
2020,04,16,08,26,12.60
2020,04,16,08,27,12.60
2020,04,16,08,28,12.70
2020,04,16,08,29,12.70
2020,04,16,08,30,12.70
2020,04,16,08,31,12.80
2020,04,16,08,32,12.80
2020,04,16,08,33,12.90
2020,04,16,08,34,13.00
2020,04,16,08,35,13.00
2020,04,16,08,36,13.10
2020,04,16,08,37,13.10
2020,04,16,08,38,13.20
2020,04,16,08,39,13.20
2020,04,16,08,40,13.20
2020,04,16,08,41,13.20
2020,04,16,08,42,13.30
2020,04,16,08,43,13.40
2020,04,16,08,44,13.40
2020,04,16,08,45,13.40
2020,04,16,08,46,13.40
2020,04,16,08,47,13.30
2020,04,16,08,48,13.30
2020,04,16,08,49,13.30
2020,04,16,08,50,13.20
2020,04,16,08,51,13.20
2020,04,16,08,52,13.20
2020,04,16,08,53,13.20
2020,04,16,08,54,13.30
2020,04,16,08,55,13.40
2020,04,16,08,56,13.40
2020,04,16,08,57,13.50
2020,04,16,08,58,13.60
2020,04,16,08,59,13.60
2020,04,16,09,00,13.70
2020,04,16,09,01,13.70
2020,04,16,09,02,13.80
2020,04,16,09,03,13.90
2020,04,16,09,04,13.90
2020,04,16,09,05,14.00
2020,04,16,09,06,14.00
2020,04,16,09,07,14.00
2020,04,16,09,08,14.10
2020,04,16,09,09,14.20
2020,04,16,09,10,14.20
2020,04,16,09,11,14.30
2020,04,16,09,12,14.30
2020,04,16,09,13,14.40
2020,04,16,09,14,14.40
2020,04,16,09,15,14.40
2020,04,16,09,16,14.50
2020,04,16,09,17,14.50
2020,04,16,09,18,14.50
2020,04,16,09,19,14.50
2020,04,16,09,20,14.40
2020,04,16,09,21,14.40
2020,04,16,09,22,14.30
2020,04,16,09,23,14.30
2020,04,16,09,24,14.20
2020,04,16,09,25,14.20
2020,04,16,09,26,14.10
2020,04,16,09,27,14.10
2020,04,16,09,28,14.00
2020,04,16,09,29,14.00
2020,04,16,09,30,13.90
2020,04,16,09,31,13.80
2020,04,16,09,32,13.80
2020,04,16,09,33,13.80
2020,04,16,09,34,13.70
2020,04,16,09,35,13.70
2020,04,16,09,36,13.70
2020,04,16,09,37,13.80
2020,04,16,09,38,13.80
2020,04,16,09,39,13.80
2020,04,16,09,40,13.90
2020,04,16,09,41,13.90
2020,04,16,09,42,13.90
2020,04,16,09,43,13.90
2020,04,16,09,44,13.90
2020,04,16,09,45,13.90
2020,04,16,09,46,13.80
2020,04,16,09,47,13.70
2020,04,16,09,48,13.60
2020,04,16,09,49,13.60
2020,04,16,09,50,13.60
2020,04,16,09,51,13.50
2020,04,16,09,52,13.50
2020,04,16,09,53,13.50
2020,04,16,09,54,13.50
2020,04,16,09,55,13.50
2020,04,16,09,56,13.40
2020,04,16,09,57,13.40
2020,04,16,09,58,13.40
2020,04,16,09,59,13.50
2020,04,16,10,00,13.50
2020,04,16,10,01,13.60
2020,04,16,10,02,13.60
2020,04,16,10,03,13.60
2020,04,16,10,04,13.60
2020,04,16,10,05,13.70
2020,04,16,10,06,13.60
2020,04,16,10,07,13.60
2020,04,16,10,08,13.60
2020,04,16,10,09,13.60
2020,04,16,10,10,13.60
2020,04,16,10,11,13.60
2020,04,16,10,12,13.60
2020,04,16,10,13,13.70
2020,04,16,10,14,13.70
2020,04,16,10,15,13.80
2020,04,16,10,16,13.90
2020,04,16,10,17,13.90
2020,04,16,10,18,13.90
2020,04,16,10,19,13.90
2020,04,16,10,20,13.90
2020,04,16,10,21,14.00
2020,04,16,10,22,14.00
2020,04,16,10,23,14.10
2020,04,16,10,24,14.10
2020,04,16,10,25,14.10
2020,04,16,10,26,14.10
2020,04,16,10,27,14.10
2020,04,16,10,28,14.10
2020,04,16,10,29,14.10
2020,04,16,10,30,14.10
2020,04,16,10,31,14.20
2020,04,16,10,32,14.10
2020,04,16,10,33,14.10
2020,04,16,10,34,14.10
2020,04,16,10,35,14.10
2020,04,16,10,36,14.10
2020,04,16,10,37,14.10
2020,04,16,10,38,14.20
2020,04,16,10,39,14.20
2020,04,16,10,40,14.20
2020,04,16,10,41,14.30
2020,04,16,10,42,14.30
2020,04,16,10,43,14.30
2020,04,16,10,44,14.30
2020,04,16,10,45,14.40
2020,04,16,10,46,14.40
2020,04,16,10,47,14.40
2020,04,16,10,48,14.40
2020,04,16,10,49,14.40
2020,04,16,10,50,14.40
2020,04,16,10,51,14.50
2020,04,16,10,52,14.60
2020,04,16,10,53,14.50
2020,04,16,10,54,14.50
2020,04,16,10,55,14.40
2020,04,16,10,56,14.40
2020,04,16,10,57,14.30
2020,04,16,10,58,14.30
2020,04,16,10,59,14.10
2020,04,16,11,00,14.10
2020,04,16,11,01,14.00
2020,04,16,11,02,13.90
2020,04,16,11,03,13.80
2020,04,16,11,04,13.80
2020,04,16,11,05,13.80
2020,04,16,11,06,13.90
2020,04,16,11,07,14.00
2020,04,16,11,08,14.10
2020,04,16,11,09,14.10
2020,04,16,11,10,14.10
2020,04,16,11,11,14.00
2020,04,16,11,12,13.90
2020,04,16,11,13,13.80
2020,04,16,11,14,13.80
2020,04,16,11,15,13.80
2020,04,16,11,16,13.90
2020,04,16,11,17,14.00
2020,04,16,11,18,14.10
2020,04,16,11,19,14.10
2020,04,16,11,20,14.10
2020,04,16,11,21,14.20
2020,04,16,11,22,14.20
2020,04,16,11,23,14.30
2020,04,16,11,24,14.40
2020,04,16,11,25,14.40
2020,04,16,11,26,14.60
2020,04,16,11,27,14.60
2020,04,16,11,28,14.70
2020,04,16,11,29,14.80
2020,04,16,11,30,14.90
2020,04,16,11,31,14.90
2020,04,16,11,32,15.00
2020,04,16,11,33,15.10
2020,04,16,11,34,15.20
2020,04,16,11,35,15.30
2020,04,16,11,36,15.30
2020,04,16,11,37,15.20
2020,04,16,11,38,15.10
2020,04,16,11,39,15.10
2020,04,16,11,40,15.10
2020,04,16,11,41,15.20
2020,04,16,11,42,15.20
2020,04,16,11,43,15.20
2020,04,16,11,44,15.20
2020,04,16,11,45,15.20
2020,04,16,11,46,15.20
2020,04,16,11,47,15.20
2020,04,16,11,48,15.20
2020,04,16,11,49,15.10
2020,04,16,11,50,15.20
2020,04,16,11,51,15.20
2020,04,16,11,52,15.20
2020,04,16,11,53,15.30
2020,04,16,11,54,15.30
2020,04,16,11,55,15.30
2020,04,16,11,56,15.40
2020,04,16,11,57,15.40
2020,04,16,11,58,15.40
2020,04,16,11,59,15.40
2020,04,16,12,00,15.40
2020,04,16,12,01,15.30
2020,04,16,12,02,15.30
2020,04,16,12,03,15.30
2020,04,16,12,04,15.30
2020,04,16,12,05,15.30
2020,04,16,12,06,15.30
2020,04,16,12,07,15.20
2020,04,16,12,08,15.20
2020,04,16,12,09,15.10
2020,04,16,12,10,15.10
2020,04,16,12,11,15.20
2020,04,16,12,12,15.30
2020,04,16,12,13,15.30
2020,04,16,12,14,15.40
2020,04,16,12,15,15.40
2020,04,16,12,16,15.50
2020,04,16,12,17,15.60
2020,04,16,12,18,15.60
2020,04,16,12,19,15.70
2020,04,16,12,20,15.70
2020,04,16,12,21,15.70
2020,04,16,12,22,15.70
2020,04,16,12,23,15.60
2020,04,16,12,24,15.50
2020,04,16,12,25,15.50
2020,04,16,12,26,15.60
2020,04,16,12,27,15.60
2020,04,16,12,28,15.60
2020,04,16,12,29,15.60
2020,04,16,12,30,15.60
2020,04,16,12,31,15.60
2020,04,16,12,32,15.50
2020,04,16,12,33,15.60
2020,04,16,12,34,15.60
2020,04,16,12,35,15.60
2020,04,16,12,36,15.80
2020,04,16,12,37,15.80
2020,04,16,12,38,15.80
2020,04,16,12,39,15.80
2020,04,16,12,40,15.80
2020,04,16,12,41,15.80
2020,04,16,12,42,15.70
2020,04,16,12,43,15.60
2020,04,16,12,44,15.40
2020,04,16,12,45,15.30
2020,04,16,12,46,15.30
2020,04,16,12,47,15.30
2020,04,16,12,48,15.30
2020,04,16,12,49,15.40
2020,04,16,12,50,15.50
2020,04,16,12,51,15.60
2020,04,16,12,52,15.80
2020,04,16,12,53,15.90
2020,04,16,12,54,15.90
2020,04,16,12,55,16.00
2020,04,16,12,56,16.00
2020,04,16,12,57,16.20
2020,04,16,12,58,16.20
2020,04,16,12,59,16.20
2020,04,16,13,00,16.30
2020,04,16,13,01,16.30
2020,04,16,13,02,16.40
2020,04,16,13,03,16.60
2020,04,16,13,04,16.60
2020,04,16,13,05,16.70
2020,04,16,13,06,16.70
2020,04,16,13,07,16.70
2020,04,16,13,08,16.80
2020,04,16,13,09,16.90
2020,04,16,13,10,17.00
2020,04,16,13,11,17.20
2020,04,16,13,12,17.30
2020,04,16,13,13,17.30
2020,04,16,13,14,17.40
2020,04,16,13,15,17.40
2020,04,16,13,16,17.30
2020,04,16,13,17,17.30
2020,04,16,13,18,17.30
2020,04,16,13,19,17.20
2020,04,16,13,20,17.20
2020,04,16,13,21,17.20
2020,04,16,13,22,17.10
2020,04,16,13,23,17.10
2020,04,16,13,24,17.20
2020,04,16,13,25,17.30
2020,04,16,13,26,17.40
2020,04,16,13,27,17.40
2020,04,16,13,28,17.50
2020,04,16,13,29,17.60
2020,04,16,13,30,17.70
2020,04,16,13,31,17.80
2020,04,16,13,32,17.90
2020,04,16,13,33,17.90
2020,04,16,13,34,18.00
2020,04,16,13,35,18.10
2020,04,16,13,36,18.20
2020,04,16,13,37,18.30
2020,04,16,13,38,18.30
2020,04,16,13,39,18.20
2020,04,16,13,40,18.20
2020,04,16,13,41,18.20
2020,04,16,13,42,18.20
2020,04,16,13,43,18.30
2020,04,16,13,44,18.40
2020,04,16,13,45,18.40
2020,04,16,13,46,18.50
2020,04,16,13,47,18.50
2020,04,16,13,48,18.50
2020,04,16,13,49,18.40
2020,04,16,13,50,18.40
2020,04,16,13,51,18.40
2020,04,16,13,52,18.40
2020,04,16,13,53,18.30
2020,04,16,13,54,18.30
2020,04,16,13,55,18.30
2020,04,16,13,56,18.20
2020,04,16,13,57,18.20
2020,04,16,13,58,18.20
2020,04,16,13,59,18.10
2020,04,16,14,00,18.10
2020,04,16,14,01,18.10
2020,04,16,14,02,18.10
2020,04,16,14,03,18.10
2020,04,16,14,04,18.10
2020,04,16,14,05,18.10
2020,04,16,14,06,18.10
2020,04,16,14,07,18.10
2020,04,16,14,08,18.10
2020,04,16,14,09,18.10
2020,04,16,14,10,18.10
2020,04,16,14,11,18.20
2020,04,16,14,12,18.20
2020,04,16,14,13,18.30
2020,04,16,14,14,18.30
2020,04,16,14,15,18.40
2020,04,16,14,16,18.40
2020,04,16,14,17,18.40
2020,04,16,14,18,18.40
2020,04,16,14,19,18.30
2020,04,16,14,20,18.20
2020,04,16,14,21,18.20
2020,04,16,14,22,18.30
2020,04,16,14,23,18.30
2020,04,16,14,24,18.40
2020,04,16,14,25,18.40
2020,04,16,14,26,18.40
2020,04,16,14,27,18.40
2020,04,16,14,28,18.50
2020,04,16,14,29,18.50
2020,04,16,14,30,18.60
2020,04,16,14,31,18.60
2020,04,16,14,32,18.60
2020,04,16,14,33,18.60
2020,04,16,14,34,18.60
2020,04,16,14,35,18.60
2020,04,16,14,36,18.70
2020,04,16,14,37,18.70
2020,04,16,14,38,18.70
2020,04,16,14,39,18.80
2020,04,16,14,40,18.80
2020,04,16,14,41,18.80
2020,04,16,14,42,18.90
2020,04,16,14,43,18.90
2020,04,16,14,44,18.90
2020,04,16,14,45,19.00
2020,04,16,14,46,19.00
2020,04,16,14,47,19.10
2020,04,16,14,48,19.10
2020,04,16,14,49,19.10
2020,04,16,14,50,19.10
2020,04,16,14,51,19.10
2020,04,16,14,52,19.10
2020,04,16,14,53,19.10
2020,04,16,14,54,19.10
2020,04,16,14,55,19.20
2020,04,16,14,56,19.20
2020,04,16,14,57,19.20
2020,04,16,14,58,19.20
2020,04,16,14,59,19.20
2020,04,16,15,00,19.20
2020,04,16,15,01,19.20
2020,04,16,15,02,19.20
2020,04,16,15,03,19.20
2020,04,16,15,04,19.30
2020,04,16,15,05,19.40
2020,04,16,15,06,19.40
2020,04,16,15,07,19.60
2020,04,16,15,08,19.60
2020,04,16,15,09,19.70
2020,04,16,15,10,19.80
2020,04,16,15,11,19.90
2020,04,16,15,12,19.90
2020,04,16,15,13,20.00
2020,04,16,15,14,20.10
2020,04,16,15,15,20.20
2020,04,16,15,16,20.20
2020,04,16,15,17,20.20
2020,04,16,15,18,20.30
2020,04,16,15,19,20.20
2020,04,16,15,20,20.20
2020,04,16,15,21,20.20
2020,04,16,15,22,20.20
2020,04,16,15,23,20.10
2020,04,16,15,24,20.10
2020,04,16,15,25,20.00
2020,04,16,15,26,20.00
2020,04,16,15,27,20.00
2020,04,16,15,28,19.90
2020,04,16,15,29,19.80
2020,04,16,15,30,19.80
2020,04,16,15,31,19.70
2020,04,16,15,32,19.70
2020,04,16,15,33,19.70
2020,04,16,15,34,19.70
2020,04,16,15,35,19.70
2020,04,16,15,36,19.80
2020,04,16,15,37,19.80
2020,04,16,15,38,19.80
2020,04,16,15,39,19.80
2020,04,16,15,40,19.80
2020,04,16,15,41,19.80
2020,04,16,15,42,19.80
2020,04,16,15,43,19.80
2020,04,16,15,44,19.80
2020,04,16,15,45,19.70
2020,04,16,15,46,19.70
2020,04,16,15,47,19.80
2020,04,16,15,48,19.80
2020,04,16,15,49,19.90
2020,04,16,15,50,19.90
2020,04,16,15,51,20.00
2020,04,16,15,52,20.00
2020,04,16,15,53,20.00
2020,04,16,15,54,20.00
2020,04,16,15,55,20.00
2020,04,16,15,56,20.00
2020,04,16,15,57,20.00
2020,04,16,15,58,20.00
2020,04,16,15,59,19.90
2020,04,16,16,00,19.90
2020,04,16,16,01,19.80
2020,04,16,16,02,19.90
2020,04,16,16,03,19.90
2020,04,16,16,04,19.90
2020,04,16,16,05,19.90
2020,04,16,16,06,19.90
2020,04,16,16,07,19.90
2020,04,16,16,08,19.80
2020,04,16,16,09,19.90
2020,04,16,16,10,20.00
2020,04,16,16,11,20.00
2020,04,16,16,12,20.10
2020,04,16,16,13,20.20
2020,04,16,16,14,20.20
2020,04,16,16,15,20.30
2020,04,16,16,16,20.30
2020,04,16,16,17,20.30
2020,04,16,16,18,20.30
2020,04,16,16,19,20.30
2020,04,16,16,20,20.30
2020,04,16,16,21,20.20
2020,04,16,16,22,20.10
2020,04,16,16,23,20.10
2020,04,16,16,24,20.00
2020,04,16,16,25,20.00
2020,04,16,16,26,20.10
2020,04,16,16,27,20.10
2020,04,16,16,28,20.10
2020,04,16,16,29,20.10
2020,04,16,16,30,20.20
2020,04,16,16,31,20.20
2020,04,16,16,32,20.20
2020,04,16,16,33,20.30
2020,04,16,16,34,20.30
2020,04,16,16,35,20.40
2020,04,16,16,36,20.40
2020,04,16,16,37,20.50
2020,04,16,16,38,20.50
2020,04,16,16,39,20.50
2020,04,16,16,40,20.50
2020,04,16,16,41,20.50
2020,04,16,16,42,20.60
2020,04,16,16,43,20.60
2020,04,16,16,44,20.60
2020,04,16,16,45,20.60
2020,04,16,16,46,20.60
2020,04,16,16,47,20.60
2020,04,16,16,48,20.50
2020,04,16,16,49,20.50
2020,04,16,16,50,20.40
2020,04,16,16,51,20.40
2020,04,16,16,52,20.30
2020,04,16,16,53,20.30
2020,04,16,16,54,20.40
2020,04,16,16,55,20.50
2020,04,16,16,56,20.50
2020,04,16,16,57,20.50
2020,04,16,16,58,20.60
2020,04,16,16,59,20.70
2020,04,16,17,00,20.70
2020,04,16,17,01,20.70
2020,04,16,17,02,20.80
2020,04,16,17,03,20.80
2020,04,16,17,04,20.90
2020,04,16,17,05,20.90
2020,04,16,17,06,21.00
2020,04,16,17,07,21.00
2020,04,16,17,08,21.10
2020,04,16,17,09,21.10
2020,04,16,17,10,21.10
2020,04,16,17,11,21.10
2020,04,16,17,12,21.20
2020,04,16,17,13,21.20
2020,04,16,17,14,21.30
2020,04,16,17,15,21.30
2020,04,16,17,16,21.20
2020,04,16,17,17,21.30
2020,04,16,17,18,21.30
2020,04,16,17,19,21.30
2020,04,16,17,20,21.30
2020,04,16,17,21,21.40
2020,04,16,17,22,21.40
2020,04,16,17,23,21.40
2020,04,16,17,24,21.40
2020,04,16,17,25,21.40
2020,04,16,17,26,21.40
2020,04,16,17,27,21.40
2020,04,16,17,28,21.40
2020,04,16,17,29,21.40
2020,04,16,17,30,21.40
2020,04,16,17,31,21.30
2020,04,16,17,32,21.30
2020,04,16,17,33,21.30
2020,04,16,17,34,21.30
2020,04,16,17,35,21.30
2020,04,16,17,36,21.40
2020,04,16,17,37,21.50
2020,04,16,17,38,21.50
2020,04,16,17,39,21.50